PTLOP CYXY-ZZZZ

Flight info

Callsign PTLOP
Flight time N/A
Altitude 5000
Route 594811N1350215W 594410N1345409W 594139N1350423W 592844N1351811W 591735N1352317W 590131N1352048W 584933N1351419W 584716N1353121W 584302N1353720W 583103N1353105W 582456N1352612W
Aircraft BE36/L-SDFGRY/C

Departure

Time 2026-04-18 02:48
Airport Whitehorse / Erik Nielsen International Airport (CYXY)

Arrival

Time N/A
Airport ZZZZ
Time Latitude Longitude Altitude Speed Heading
2026-04-18 02:26 60.70741 -135.07735 2300 ft 0 kts 36°
2026-04-18 02:41 60.70744 -135.07730 2303 ft 6 kts 38°
2026-04-18 02:41 60.70816 -135.07674 2302 ft 15 kts 15°
2026-04-18 02:42 60.70913 -135.07562 2299 ft 21 kts 29°
2026-04-18 02:42 60.71005 -135.07434 2288 ft 25 kts 40°
2026-04-18 02:42 60.71107 -135.07300 2280 ft 18 kts 31°
2026-04-18 02:42 60.71215 -135.07257 2280 ft 13 kts 355°
2026-04-18 02:43 60.71327 -135.07346 2280 ft 19 kts 352°
2026-04-18 02:43 60.71453 -135.07397 2280 ft 17 kts 339°
2026-04-18 02:43 60.71585 -135.07496 2280 ft 20 kts 343°
2026-04-18 02:43 60.71683 -135.07570 2280 ft 11 kts 340°
2026-04-18 02:44 60.71726 -135.07592 2280 ft 0 kts 24°
2026-04-18 02:45 60.71738 -135.07577 2280 ft 1 kts 49°
2026-04-18 02:45 60.71745 -135.07539 2281 ft 6 kts 75°
2026-04-18 02:45 60.71747 -135.07523 2282 ft 0 kts 80°
2026-04-18 02:46 60.71748 -135.07515 2282 ft 3 kts 71°
2026-04-18 02:46 60.71766 -135.07396 2286 ft 12 kts 101°
2026-04-18 02:47 60.71638 -135.07256 2284 ft 52 kts 159°
2026-04-18 02:47 60.71095 -135.06833 2303 ft 105 kts 158°
2026-04-18 02:47 60.70361 -135.06267 2516 ft 123 kts 160°
2026-04-18 02:47 60.69492 -135.05638 2708 ft 144 kts 162°
2026-04-18 02:48 60.68493 -135.05030 2884 ft 153 kts 163°
2026-04-18 02:48 60.67469 -135.04386 3158 ft 155 kts 163°
2026-04-18 02:48 60.66441 -135.03703 3457 ft 156 kts 161°
2026-04-18 02:48 60.65438 -135.02970 3733 ft 155 kts 161°
2026-04-18 02:49 60.64423 -135.02248 4035 ft 155 kts 163°
2026-04-18 02:49 60.63399 -135.01530 4348 ft 155 kts 163°
2026-04-18 02:49 60.62387 -135.00814 4613 ft 150 kts 163°
2026-04-18 02:49 60.61400 -135.00099 4878 ft 151 kts 163°
2026-04-18 02:50 60.60407 -134.99380 5223 ft 152 kts 163°
2026-04-18 02:50 60.59403 -134.98662 5477 ft 154 kts 163°
2026-04-18 02:50 60.58391 -134.97946 5734 ft 154 kts 164°
2026-04-18 02:50 60.57410 -134.97245 5993 ft 140 kts 165°
2026-04-18 02:51 60.56566 -134.96631 5949 ft 126 kts 163°
2026-04-18 02:51 60.55752 -134.96033 6543 ft 132 kts 166°
2026-04-18 02:51 60.54838 -134.95390 6800 ft 148 kts 167°
2026-04-18 02:51 60.53829 -134.94701 7060 ft 158 kts 168°
2026-04-18 02:52 60.52764 -134.93967 7323 ft 165 kts 168°
2026-04-18 02:52 60.51660 -134.93193 7573 ft 170 kts 169°
2026-04-18 02:52 60.50525 -134.92392 7835 ft 174 kts 169°
2026-04-18 02:52 60.49367 -134.91572 8096 ft 178 kts 169°
2026-04-18 02:53 60.48243 -134.90761 8352 ft 161 kts 169°
2026-04-18 02:53 60.47216 -134.90010 8460 ft 156 kts 171°
2026-04-18 02:53 60.46185 -134.89277 8471 ft 157 kts 171°
2026-04-18 02:53 60.45151 -134.88544 8475 ft 158 kts 171°
2026-04-18 02:54 60.44112 -134.87805 8480 ft 158 kts 171°
2026-04-18 02:54 60.43040 -134.87060 8486 ft 167 kts 171°
2026-04-18 02:54 60.41914 -134.86288 8490 ft 174 kts 171°
2026-04-18 02:54 60.40773 -134.85497 8488 ft 177 kts 170°
2026-04-18 02:55 60.39630 -134.84693 8488 ft 171 kts 170°
2026-04-18 02:55 60.38514 -134.83900 8483 ft 170 kts 170°
2026-04-18 02:55 60.37389 -134.83116 8480 ft 172 kts 170°
2026-04-18 02:55 60.36254 -134.82326 8483 ft 173 kts 170°
2026-04-18 02:56 60.35111 -134.81527 8484 ft 174 kts 170°
2026-04-18 02:56 60.33967 -134.80723 8490 ft 174 kts 170°
2026-04-18 02:56 60.31687 -134.79122 8490 ft 173 kts 170°
2026-04-18 02:57 60.30551 -134.78332 8487 ft 172 kts 171°
2026-04-18 02:57 60.29419 -134.77540 8485 ft 172 kts 170°
2026-04-18 02:57 60.28289 -134.76750 8484 ft 172 kts 170°
2026-04-18 02:57 60.27161 -134.75961 8484 ft 171 kts 170°
2026-04-18 02:58 60.26041 -134.75183 8477 ft 170 kts 171°
2026-04-18 02:58 60.24929 -134.74397 8484 ft 169 kts 170°
2026-04-18 02:58 60.23814 -134.73621 8491 ft 169 kts 171°
2026-04-18 02:58 60.22698 -134.72849 8504 ft 170 kts 170°
2026-04-18 02:59 60.21570 -134.72077 8503 ft 171 kts 171°
2026-04-18 02:59 60.20450 -134.71334 8498 ft 172 kts 171°
2026-04-18 02:59 60.19306 -134.70843 8494 ft 162 kts 192°
2026-04-18 02:59 60.18262 -134.71447 8489 ft 154 kts 210°
2026-04-18 03:00 60.17282 -134.72297 8490 ft 154 kts 212°
2026-04-18 03:00 60.16637 -134.72885 8485 ft 154 kts 212°
2026-04-18 03:00 60.15343 -134.74102 8482 ft 153 kts 213°
2026-04-18 03:00 60.14369 -134.74973 8484 ft 154 kts 211°
2026-04-18 03:01 60.13725 -134.75521 8484 ft 150 kts 211°
2026-04-18 03:01 60.12765 -134.76333 8487 ft 149 kts 211°
2026-04-18 03:01 60.11817 -134.77168 8510 ft 150 kts 211°
2026-04-18 03:01 60.10852 -134.77994 8501 ft 150 kts 211°
2026-04-18 03:02 60.09895 -134.78835 8528 ft 151 kts 212°
2026-04-18 03:02 60.08935 -134.79704 8509 ft 151 kts 211°
2026-04-18 03:02 60.07960 -134.80523 8504 ft 151 kts 209°
2026-04-18 03:02 60.06992 -134.81329 8493 ft 150 kts 211°
2026-04-18 03:03 60.06033 -134.82162 8510 ft 151 kts 211°
2026-04-18 03:03 60.05067 -134.82998 8505 ft 151 kts 211°
2026-04-18 03:03 60.04103 -134.83839 8499 ft 151 kts 211°
2026-04-18 03:03 60.03138 -134.84673 8495 ft 151 kts 211°
2026-04-18 03:04 60.02179 -134.85499 8493 ft 149 kts 210°
2026-04-18 03:04 60.01229 -134.86313 8492 ft 148 kts 210°
2026-04-18 03:04 60.00285 -134.87127 8502 ft 148 kts 210°
2026-04-18 03:04 59.99350 -134.87929 8503 ft 148 kts 210°
2026-04-18 03:05 59.98401 -134.88734 8505 ft 148 kts 210°
2026-04-18 03:05 59.97449 -134.89543 8510 ft 149 kts 210°
2026-04-18 03:05 59.96499 -134.90389 8524 ft 150 kts 211°
2026-04-18 03:05 59.95539 -134.91219 8500 ft 150 kts 210°
2026-04-18 03:06 59.94581 -134.92029 8485 ft 148 kts 210°
2026-04-18 03:06 59.93635 -134.92826 8484 ft 147 kts 210°
2026-04-18 03:06 59.92697 -134.93625 8480 ft 146 kts 210°
2026-04-18 03:06 59.91765 -134.94417 8483 ft 145 kts 210°
2026-04-18 03:07 59.90834 -134.95210 8487 ft 145 kts 210°
2026-04-18 03:07 59.89905 -134.96006 8488 ft 145 kts 210°
2026-04-18 03:07 59.88978 -134.96794 8488 ft 145 kts 210°
2026-04-18 03:07 59.88054 -134.97581 8490 ft 145 kts 210°
2026-04-18 03:08 59.87130 -134.98370 8491 ft 144 kts 210°
2026-04-18 03:08 59.86216 -134.99148 8490 ft 144 kts 210°
2026-04-18 03:08 59.85296 -134.99934 8502 ft 144 kts 210°
2026-04-18 03:08 59.84374 -135.00718 8507 ft 144 kts 210°
2026-04-18 03:09 59.83453 -135.01497 8507 ft 144 kts 210°
2026-04-18 03:09 59.82532 -135.02278 8508 ft 144 kts 210°
2026-04-18 03:09 59.81587 -135.02969 8506 ft 147 kts 200°
2026-04-18 03:09 59.80540 -135.03025 8510 ft 156 kts 181°
2026-04-18 03:10 59.79493 -135.02254 8502 ft 168 kts 154°
2026-04-18 03:10 59.78650 -135.00567 8500 ft 173 kts 141°
2026-04-18 03:10 59.77819 -134.98851 8496 ft 171 kts 145°
2026-04-18 03:10 59.76970 -134.97219 8497 ft 170 kts 145°
2026-04-18 03:11 59.76125 -134.95581 8507 ft 170 kts 145°
2026-04-18 03:11 59.75286 -134.93936 8513 ft 170 kts 145°
2026-04-18 03:11 59.74325 -134.92749 8520 ft 157 kts 179°
2026-04-18 03:11 59.73325 -134.93112 8527 ft 144 kts 217°
2026-04-18 03:12 59.72656 -134.94525 8530 ft 142 kts 241°
2026-04-18 03:12 59.72202 -134.96272 8527 ft 143 kts 246°
2026-04-18 03:12 59.71797 -134.98084 8520 ft 144 kts 248°
2026-04-18 03:12 59.71397 -134.99908 8518 ft 145 kts 247°
2026-04-18 03:13 59.70989 -135.01730 8525 ft 145 kts 246°
2026-04-18 03:13 59.70570 -135.03548 8520 ft 145 kts 245°
2026-04-18 03:13 59.70137 -135.05368 8526 ft 147 kts 244°
2026-04-18 03:13 59.69636 -135.07118 8520 ft 147 kts 231°
2026-04-18 03:14 59.68813 -135.08316 8527 ft 149 kts 211°
2026-04-18 03:14 59.67889 -135.09253 8536 ft 149 kts 213°
2026-04-18 03:14 59.66989 -135.10239 8542 ft 150 kts 213°
2026-04-18 03:14 59.66078 -135.11247 8546 ft 150 kts 213°
2026-04-18 03:15 59.65165 -135.12257 8547 ft 151 kts 213°
2026-04-18 03:15 59.64247 -135.13260 8547 ft 151 kts 212°
2026-04-18 03:15 59.63325 -135.14254 8544 ft 151 kts 213°
2026-04-18 03:15 59.62409 -135.15242 8531 ft 149 kts 213°
2026-04-18 03:16 59.61507 -135.16216 8544 ft 147 kts 212°
2026-04-18 03:16 59.60604 -135.17161 8568 ft 148 kts 212°
2026-04-18 03:16 59.59693 -135.18126 8581 ft 149 kts 212°
2026-04-18 03:16 59.58774 -135.19071 8573 ft 149 kts 212°
2026-04-18 03:17 59.57861 -135.20042 8571 ft 150 kts 212°
2026-04-18 03:17 59.56962 -135.20987 8552 ft 134 kts 212°
2026-04-18 03:17 59.56208 -135.21767 8538 ft 115 kts 213°
2026-04-18 03:17 59.55530 -135.22455 8536 ft 104 kts 213°
2026-04-18 03:18 59.54898 -135.23115 8550 ft 108 kts 216°
2026-04-18 03:18 59.54198 -135.23886 8583 ft 129 kts 213°
2026-04-18 03:18 59.53436 -135.24654 8586 ft 140 kts 213°
2026-04-18 03:19 59.53272 -135.24832 8584 ft 141 kts 213°
2026-04-18 03:19 59.52383 -135.25772 8574 ft 148 kts 212°
2026-04-18 03:20 59.51517 -135.26703 8541 ft 131 kts 212°
2026-04-18 03:20 59.50758 -135.27480 8529 ft 116 kts 209°
2026-04-18 03:20 59.50054 -135.28103 8533 ft 106 kts 212°
2026-04-18 03:20 59.49429 -135.28758 8529 ft 100 kts 213°
2026-04-18 03:21 59.48802 -135.29427 8545 ft 107 kts 215°
2026-04-18 03:21 59.48141 -135.30188 8565 ft 113 kts 216°
2026-04-18 03:21 59.47384 -135.30782 8548 ft 121 kts 205°
2026-04-18 03:21 59.46552 -135.31233 8564 ft 127 kts 201°
2026-04-18 03:22 59.45694 -135.31608 8564 ft 122 kts 200°
2026-04-18 03:22 59.44891 -135.31943 8557 ft 115 kts 200°
2026-04-18 03:22 59.44127 -135.32255 8558 ft 110 kts 201°
2026-04-18 03:22 59.43943 -135.32334 8559 ft 109 kts 201°
2026-04-18 03:24 59.43665 -135.32455 8561 ft 108 kts 201°
2026-04-18 03:24 59.43604 -135.32481 8562 ft 108 kts 201°
2026-04-18 03:24 59.43346 -135.32590 8563 ft 107 kts 201°
2026-04-18 03:25 59.42828 -135.32817 8553 ft 105 kts 198°
2026-04-18 03:25 59.42107 -135.33133 8573 ft 118 kts 196°
2026-04-18 03:25 59.41176 -135.33471 8604 ft 151 kts 197°
2026-04-18 03:26 59.40109 -135.33957 8599 ft 154 kts 198°
2026-04-18 03:26 59.39071 -135.34433 8526 ft 158 kts 196°
2026-04-18 03:26 59.38043 -135.34866 8577 ft 136 kts 195°
2026-04-18 03:26 59.37064 -135.35336 8504 ft 147 kts 197°
2026-04-18 03:27 59.36440 -135.36355 7722 ft 149 kts 275°
2026-04-18 03:27 59.36419 -135.38323 8036 ft 116 kts 221°
2026-04-18 03:27 59.35630 -135.38612 8640 ft 126 kts 179°
2026-04-18 03:27 59.34745 -135.38144 8804 ft 146 kts 171°
2026-04-18 03:28 59.33689 -135.37518 8696 ft 173 kts 171°
2026-04-18 03:28 59.32472 -135.36884 8637 ft 184 kts 172°
2026-04-18 03:28 59.31206 -135.36306 8606 ft 189 kts 174°
2026-04-18 03:28 59.29906 -135.35775 8606 ft 192 kts 174°
2026-04-18 03:29 59.28589 -135.35294 8579 ft 192 kts 175°
2026-04-18 03:29 59.27307 -135.35037 8582 ft 173 kts 193°
2026-04-18 03:29 59.26268 -135.35702 8597 ft 146 kts 207°
2026-04-18 03:29 59.25424 -135.36449 8582 ft 127 kts 207°
2026-04-18 03:30 59.24619 -135.37040 8567 ft 120 kts 202°
2026-04-18 03:30 59.23825 -135.37418 8563 ft 115 kts 196°
2026-04-18 03:30 59.23046 -135.37616 8563 ft 112 kts 192°
2026-04-18 03:30 59.22235 -135.37693 8575 ft 132 kts 188°
2026-04-18 03:31 59.21216 -135.37724 8587 ft 159 kts 186°
2026-04-18 03:31 59.20059 -135.37675 8598 ft 173 kts 183°
2026-04-18 03:31 59.18826 -135.37551 8602 ft 181 kts 182°
2026-04-18 03:31 59.17549 -135.37391 8617 ft 187 kts 181°
2026-04-18 03:32 59.16239 -135.37194 8612 ft 190 kts 181°
2026-04-18 03:32 59.14916 -135.36982 8602 ft 190 kts 180°
2026-04-18 03:32 59.13613 -135.36758 8600 ft 182 kts 181°
2026-04-18 03:32 59.12397 -135.36552 8575 ft 170 kts 181°
2026-04-18 03:33 59.11240 -135.36346 8584 ft 164 kts 182°
2026-04-18 03:33 59.10118 -135.36160 8583 ft 160 kts 182°
2026-04-18 03:33 59.09019 -135.35988 8584 ft 158 kts 183°
2026-04-18 03:33 59.07938 -135.35822 8582 ft 149 kts 183°
2026-04-18 03:34 59.06971 -135.35655 8581 ft 135 kts 183°
2026-04-18 03:34 59.06051 -135.35492 8581 ft 131 kts 183°
2026-04-18 03:34 59.05157 -135.35334 8595 ft 129 kts 184°
2026-04-18 03:34 59.04346 -135.35183 8588 ft 106 kts 184°
2026-04-18 03:35 59.03686 -135.35018 8573 ft 84 kts 184°
2026-04-18 03:35 59.02971 -135.34854 8611 ft 126 kts 184°
2026-04-18 03:35 59.01988 -135.34622 8632 ft 157 kts 176°
2026-04-18 03:35 59.00858 -135.34119 8627 ft 173 kts 173°
2026-04-18 03:36 58.99654 -135.33524 8621 ft 182 kts 173°
2026-04-18 03:36 58.99483 -135.33439 8621 ft 183 kts 173°
2026-04-18 03:36 58.98368 -135.32850 8618 ft 188 kts 171°
2026-04-18 03:36 58.97097 -135.32139 8620 ft 191 kts 171°
2026-04-18 03:37 58.95814 -135.31422 8617 ft 193 kts 171°
2026-04-18 03:37 58.94524 -135.30702 8614 ft 193 kts 171°
2026-04-18 03:37 58.93235 -135.29996 8607 ft 190 kts 171°
2026-04-18 03:37 58.92011 -135.29327 8612 ft 176 kts 172°
2026-04-18 03:38 58.90855 -135.28689 8610 ft 170 kts 171°
2026-04-18 03:38 58.89733 -135.28068 8611 ft 166 kts 172°
2026-04-18 03:38 58.88676 -135.27483 8609 ft 150 kts 172°
2026-04-18 03:38 58.87714 -135.26938 8608 ft 139 kts 172°
2026-04-18 03:39 58.86814 -135.26422 8610 ft 131 kts 173°
2026-04-18 03:39 58.85957 -135.25937 8614 ft 126 kts 174°
2026-04-18 03:39 58.85130 -135.25468 8611 ft 122 kts 173°
2026-04-18 03:39 58.84326 -135.25015 8609 ft 119 kts 174°
2026-04-18 03:40 58.83533 -135.24571 8613 ft 118 kts 174°
2026-04-18 03:40 58.82758 -135.24440 8621 ft 107 kts 202°
2026-04-18 03:40 58.82211 -135.25309 8626 ft 104 kts 239°
2026-04-18 03:40 58.81969 -135.26643 8629 ft 107 kts 252°
2026-04-18 03:41 58.81836 -135.28031 8627 ft 108 kts 255°
2026-04-18 03:41 58.81763 -135.29497 8671 ft 110 kts 262°
2026-04-18 03:41 58.81616 -135.31054 8649 ft 127 kts 250°
2026-04-18 03:41 58.81405 -135.32779 8589 ft 136 kts 254°
2026-04-18 03:42 58.81214 -135.34617 8631 ft 143 kts 255°
2026-04-18 03:42 58.81007 -135.36510 8640 ft 149 kts 253°
2026-04-18 03:42 58.80772 -135.38487 8639 ft 153 kts 255°
2026-04-18 03:42 58.80530 -135.40520 8669 ft 157 kts 253°
2026-04-18 03:43 58.80268 -135.42580 8666 ft 159 kts 253°
2026-04-18 03:43 58.79998 -135.44627 8629 ft 156 kts 252°
2026-04-18 03:43 58.79735 -135.46623 8620 ft 154 kts 252°
2026-04-18 03:43 58.79475 -135.48619 8577 ft 153 kts 250°
2026-04-18 03:44 58.79264 -135.50560 8526 ft 143 kts 251°
2026-04-18 03:44 58.78809 -135.52330 8587 ft 153 kts 233°
2026-04-18 03:44 58.78022 -135.53733 8596 ft 151 kts 218°
2026-04-18 03:44 58.77205 -135.54875 8599 ft 140 kts 218°
2026-04-18 03:45 58.76445 -135.55947 8602 ft 132 kts 218°
2026-04-18 03:45 58.75711 -135.56959 8608 ft 128 kts 218°
2026-04-18 03:45 58.75003 -135.57937 8606 ft 121 kts 218°
2026-04-18 03:45 58.74359 -135.58810 8614 ft 107 kts 217°
2026-04-18 03:46 58.73760 -135.59591 8631 ft 101 kts 215°
2026-04-18 03:46 58.73137 -135.60366 8643 ft 115 kts 215°
2026-04-18 03:46 58.72675 -135.60970 8643 ft 126 kts 217°
2026-04-18 03:46 58.71885 -135.61866 8638 ft 138 kts 203°
2026-04-18 03:47 58.70890 -135.61998 8629 ft 153 kts 176°
2026-04-18 03:47 58.69833 -135.61474 8644 ft 160 kts 173°
2026-04-18 03:47 58.68742 -135.60953 8659 ft 162 kts 174°
2026-04-18 03:47 58.67649 -135.60411 8644 ft 163 kts 173°
2026-04-18 03:48 58.66552 -135.59865 8633 ft 163 kts 172°
2026-04-18 03:48 58.65444 -135.59273 8271 ft 176 kts 170°
2026-04-18 03:48 58.64342 -135.58625 8463 ft 151 kts 171°
2026-04-18 03:48 58.63428 -135.58102 8714 ft 131 kts 173°
2026-04-18 03:49 58.62596 -135.57631 9070 ft 116 kts 174°
2026-04-18 03:49 58.61787 -135.57200 8929 ft 138 kts 176°
2026-04-18 03:49 58.60755 -135.56753 8457 ft 163 kts 174°
2026-04-18 03:49 58.59609 -135.56232 7986 ft 172 kts 173°
2026-04-18 03:50 58.58462 -135.55655 7527 ft 169 kts 172°
2026-04-18 03:50 58.57491 -135.55143 7135 ft 168 kts 171°
2026-04-18 03:51 58.57471 -135.55133 7127 ft 168 kts 171°
2026-04-18 03:51 58.56377 -135.54540 6677 ft 163 kts 170°
2026-04-18 03:51 58.55286 -135.53948 6194 ft 161 kts 170°
2026-04-18 03:51 58.54222 -135.53383 5715 ft 160 kts 170°
2026-04-18 03:52 58.53147 -135.52819 5237 ft 160 kts 169°
2026-04-18 03:52 58.52074 -135.52259 4761 ft 160 kts 168°
2026-04-18 03:52 58.51026 -135.51525 4274 ft 160 kts 161°
2026-04-18 03:52 58.49999 -135.50710 3797 ft 159 kts 160°
2026-04-18 03:53 58.48978 -135.49896 3329 ft 159 kts 160°
2026-04-18 03:53 58.47960 -135.49089 2847 ft 158 kts 160°
2026-04-18 03:53 58.46955 -135.48274 2402 ft 155 kts 159°
2026-04-18 03:53 58.46033 -135.47543 2351 ft 132 kts 159°
2026-04-18 03:54 58.45235 -135.46895 2327 ft 120 kts 159°
2026-04-18 03:54 58.44490 -135.46274 2312 ft 115 kts 158°
2026-04-18 03:54 58.43716 -135.45641 2039 ft 126 kts 158°
2026-04-18 03:54 58.42878 -135.45004 1739 ft 132 kts 163°
2026-04-18 03:55 58.41972 -135.44651 1448 ft 135 kts 180°
2026-04-18 03:55 58.41041 -135.44731 1268 ft 132 kts 181°
2026-04-18 03:55 58.40139 -135.44825 1197 ft 132 kts 181°
2026-04-18 03:55 58.39198 -135.44930 1169 ft 138 kts 182°
2026-04-18 03:56 58.38279 -135.45518 1149 ft 142 kts 203°
2026-04-18 03:56 58.37539 -135.46744 1141 ft 146 kts 235°
2026-04-18 03:56 58.36949 -135.48317 1141 ft 146 kts 229°
2026-04-18 03:56 58.36118 -135.49189 1134 ft 140 kts 179°
2026-04-18 03:57 58.34635 -135.47079 1141 ft 143 kts 104°
2026-04-18 03:57 58.34857 -135.45278 1141 ft 147 kts 51°
2026-04-18 03:57 58.35733 -135.44282 1079 ft 145 kts 25°
2026-04-18 03:58 58.36607 -135.43525 956 ft 134 kts 24°
2026-04-18 03:58 58.37502 -135.43008 751 ft 138 kts 13°
2026-04-18 03:58 58.38441 -135.42903 662 ft 135 kts 356°
2026-04-18 03:58 58.39362 -135.43087 635 ft 131 kts
2026-04-18 03:59 58.40204 -135.43101 472 ft 108 kts 360°
2026-04-18 03:59 58.40919 -135.43299 227 ft 96 kts 336°
2026-04-18 03:59 58.41490 -135.43857 50 ft 80 kts 333°
2026-04-18 03:59 58.42042 -135.44497 131 ft 103 kts 308°
2026-04-18 04:00 58.41969 -135.45767 297 ft 110 kts 225°
2026-04-18 04:00 58.41283 -135.46343 570 ft 117 kts 175°
2026-04-18 04:00 58.40406 -135.46066 843 ft 131 kts 169°
2026-04-18 04:00 58.39461 -135.45702 1048 ft 139 kts 160°
2026-04-18 04:01 58.38613 -135.44719 1061 ft 151 kts 147°
2026-04-18 04:01 58.37795 -135.43756 1474 ft 137 kts 115°
2026-04-18 04:01 58.38339 -135.42323 983 ft 181 kts 12°
2026-04-18 04:01 58.39634 -135.42520 758 ft 194 kts 355°
2026-04-18 04:02 58.40941 -135.43288 187 ft 199 kts 332°
2026-04-18 04:02 58.42091 -135.44601 268 ft 182 kts 304°
2026-04-18 04:02 58.41873 -135.46590 600 ft 162 kts 205°
2026-04-18 04:02 58.40808 -135.46285 741 ft 165 kts 152°
2026-04-18 04:03 58.39825 -135.45217 603 ft 162 kts 154°
2026-04-18 04:03 58.38909 -135.44197 757 ft 148 kts 120°
2026-04-18 04:03 58.39366 -135.42604 659 ft 175 kts 13°
2026-04-18 04:03 58.40593 -135.43008 315 ft 195 kts 337°
2026-04-18 04:04 58.41822 -135.44194 61 ft 198 kts 333°
2026-04-18 04:04 58.42273 -135.46178 529 ft 173 kts 252°
2026-04-18 04:04 58.41357 -135.46992 703 ft 162 kts 157°
2026-04-18 04:04 58.40375 -135.45814 838 ft 171 kts 152°
2026-04-18 04:05 58.39359 -135.44704 1009 ft 172 kts 145°
2026-04-18 04:05 58.38519 -135.43086 1013 ft 160 kts 104°
2026-04-18 04:05 58.39308 -135.41962 762 ft 172 kts 353°
2026-04-18 04:05 58.40418 -135.42804 431 ft 167 kts 336°
2026-04-18 04:06 58.41428 -135.43790 69 ft 151 kts 332°
2026-04-18 04:06 58.42212 -135.44918 180 ft 144 kts 291°
2026-04-18 04:06 58.42085 -135.46787 468 ft 145 kts 222°
2026-04-18 04:06 58.41162 -135.46870 785 ft 145 kts 158°
2026-04-18 04:07 58.40204 -135.46060 1059 ft 157 kts 160°
2026-04-18 04:07 58.39220 -135.45322 1622 ft 143 kts 159°
2026-04-18 04:07 58.38225 -135.44563 1486 ft 152 kts 144°
2026-04-18 04:07 58.37936 -135.42649 1096 ft 181 kts 59°
2026-04-18 04:08 58.39074 -135.41799 795 ft 186 kts 353°
2026-04-18 04:08 58.40288 -135.42722 466 ft 195 kts 337°
2026-04-18 04:08 58.41635 -135.44002 62 ft 207 kts 333°
2026-04-18 04:08 58.42116 -135.45854 581 ft 166 kts 247°
2026-04-18 04:09 58.41255 -135.46791 849 ft 159 kts 168°
2026-04-18 04:09 58.40202 -135.45749 864 ft 169 kts 152°
2026-04-18 04:09 58.39363 -135.44353 840 ft 144 kts 110°
2026-04-18 04:09 58.39636 -135.42777 493 ft 134 kts 30°
2026-04-18 04:10 58.40432 -135.42937 364 ft 113 kts 342°
2026-04-18 04:10 58.41128 -135.43493 115 ft 98 kts 335°
2026-04-18 04:10 58.41663 -135.44029 49 ft 62 kts 331°
2026-04-18 04:10 58.41863 -135.44221 49 ft 7 kts 341°
2026-04-18 04:11 58.41858 -135.44240 49 ft 0 kts 103°
2026-04-18 04:22 58.41857 -135.44235 49 ft 0 kts 105°